IK1VGG-3 Weather Reports


time (UTC)temp
C
wind
direction
speed
KPH
gust
KPH
rain 1hr
cm
rain 24hr
cm
rain mn
cm
humidity
%
barometer
mb
20260506205646 15 0.0 0.0 0.00 0.00 0.00 65 1005.8
20260506204646 15 0.0 0.0 0.00 0.00 0.00 65 1005.8
20260506203455 15 0.0 0.0 0.00 0.00 0.00 64 1005.8
20260506202455 15 0.0 0.0 0.00 0.00 0.00 64 1005.8
20260506201455 15 0.0 0.0 0.00 0.00 0.00 64 1005.8
20260506200455 15 0.0 0.0 0.00 0.00 0.00 64 1005.8
20260506195455 15 0.0 0.0 0.00 0.00 0.00 64 1004.7
20260506194455 15 0.0 0.0 0.00 0.00 0.00 64 1004.7
20260506193455 16 0.0 0.0 0.00 0.00 0.00 64 1004.7
20260506192305 16 0.0 0.0 0.00 0.00 0.00 64 1004.7
20260506191303 16 0.0 0.0 0.00 0.00 0.00 64 1003.7
20260506190112 16 0.0 0.0 0.00 0.00 0.00 64 1003.7
20260506185112 16 0.0 0.0 0.00 0.00 0.00 63 1003.7
20260506184112 16 0.0 0.0 0.00 0.00 0.00 64 1003.7
20260506183112 16 0.0 0.0 0.00 0.00 0.00 63 1003.7
20260506182112 16 0.0 0.0 0.00 0.00 0.00 62 1003.7
20260506181112 16 0.0 0.0 0.00 0.00 0.00 62 1003.7
20260506180112 16 0.0 0.0 0.00 0.00 0.00 62 1003.7
20260506175112 17 0.0 0.0 0.00 0.00 0.00 61 1003.7
20260506174112 17 0.0 0.0 0.00 0.00 0.00 61 1003.7
20260506172920 17 0.0 0.0 0.00 0.00 0.00 61 1002.6
20260506171729 17 0.0 0.0 0.00 0.00 0.00 61 1002.6
20260506170729 17 0.0 0.0 0.00 0.00 0.00 61 1002.6
20260506165729 17 0.0 0.0 0.00 0.00 0.00 62 1002.6
20260506164729 17 0.0 0.0 0.00 0.00 0.00 62 1001.6
20260506163729 17 0.0 0.0 0.00 0.00 0.00 60 1001.6
20260506162538 17 0.0 0.0 0.00 0.00 0.00 56 1001.6
20260506161538 17 0.0 0.0 0.00 0.00 0.00 57 1001.6
20260506160538 17 0.0 0.0 0.00 0.00 0.00 58 1001.6
20260506155538 18 0.0 0.0 0.00 0.00 0.00 59 1001.6
20260506154538 20 0.0 0.0 0.00 0.00 0.00 57 1001.6
20260506153346 20 0.0 0.0 0.00 0.00 0.00 57 1001.6
20260506152347 18 0.0 0.0 0.00 0.00 0.00 59 1001.6
20260506151347 19 0.0 0.0 0.00 0.00 0.00 58 1001.6
20260506150346 19 0.0 0.0 0.00 0.00 0.00 57 1001.6
20260506140021 21 0.0 0.0 0.00 0.00 0.00 53 1002.6
20260506134639 21 0.0 0.0 0.00 0.00 0.00 53 1002.6
20260506133639 21 0.0 0.0 0.00 0.00 0.00 53 1002.6
20260506132639 22 0.0 0.0 0.00 0.00 0.00 54 1002.6
20260506131639 22 0.0 0.0 0.00 0.00 0.00 54 1002.6
20260506130639 21 0.0 0.0 0.00 0.00 0.00 56 1002.6
20260506125638 21 0.0 0.0 0.00 0.00 0.00 56 1002.6
20260506124639 21 0.0 0.0 0.00 0.00 0.00 56 1002.6
20260506123639 21 0.0 0.0 0.00 0.00 0.00 56 1002.6
20260506122447 21 0.0 0.0 0.00 0.00 0.00 59 1002.6
20260506121448 20 0.0 0.0 0.00 0.00 0.00 60 1002.6
20260506120447 20 0.0 0.0 0.00 0.00 0.00 62 1002.6
20260506115256 20 0.0 0.0 0.00 0.00 0.00 62 1002.6
20260506114256 20 0.0 0.0 0.00 0.00 0.00 65 1002.6
20260506113256 19 0.0 0.0 0.00 0.00 0.00 66 1002.6
20260506112256 18 0.0 0.0 0.00 0.00 0.00 70 1002.6
20260506111256 17 0.0 0.0 0.00 0.00 0.00 70 1002.6
20260506110105 17 0.0 0.0 0.00 0.00 0.00 73 1002.6
20260506105105 17 0.0 0.0 0.00 0.00 0.00 75 1002.6
20260506104105 16 0.0 0.0 0.00 0.00 0.00 78 1002.6
20260506103105 15 0.0 0.0 0.00 0.00 0.00 81 1002.6
20260506102105 14 0.0 0.0 0.00 0.00 0.00 84 1002.6
20260506101105 13 0.0 0.0 0.00 0.00 0.00 88 1002.6
20260506100105 12 0.0 0.0 0.00 0.00 0.00 90 1002.6
20260506095105 12 0.0 0.0 0.00 0.00 0.00 90 1002.6
20260506093914 13 0.0 0.0 0.00 0.00 0.00 91 1001.6
20260506092914 13 0.0 0.0 0.00 0.00 0.00 91 1001.6
20260506091914 13 0.0 0.0 0.00 0.00 0.00 90 1001.6
20260506090914 13 0.0 0.0 0.00 0.00 0.00 90 1001.6
20260506085914 13 0.0 0.0 0.00 0.00 0.00 90 1001.6
20260506084723 13 0.0 0.0 0.00 0.00 0.00 89 1001.6
20260506083531 13 0.0 0.0 0.00 0.00 0.00 88 1001.6
20260506082531 13 0.0 0.0 0.00 0.00 0.00 88 1002.6
20260506081531 13 0.0 0.0 0.00 0.00 0.00 88 1002.6
20260506080531 13 0.0 0.0 0.00 0.00 0.00 87 1002.6
20260506072531 13 0.0 0.0 0.00 0.00 0.00 86 1002.6
20260506071340 13 0.0 0.0 0.00 0.00 0.00 86 1002.6
20260506070339 13 0.0 0.0 0.00 0.00 0.00 86 1002.6
20260506062340 13 0.0 0.0 0.00 0.00 0.00 83 1002.6
20260506061340 13 0.0 0.0 0.00 0.00 0.00 83 1002.6
20260506060148 13 0.0 0.0 0.00 0.00 0.00 83 1003.7
20260506050957 12 0.0 0.0 0.00 0.00 0.00 82 1003.7
20260506044806 13 0.0 0.0 0.00 0.00 0.00 81 1003.7
20260506043806 13 0.0 0.0 0.00 0.00 0.00 81 1003.7
20260506042806 13 0.0 0.0 0.00 0.00 0.00 80 1003.7
20260506041806 13 0.0 0.0 0.00 0.00 0.00 80 1003.7
20260506040806 13 0.0 0.0 0.00 0.00 0.00 79 1003.7
20260506035806 13 0.0 0.0 0.00 0.00 0.00 79 1003.7
20260506034806 13 0.0 0.0 0.00 0.00 0.00 79 1003.7
20260506033614 13 0.0 0.0 0.00 0.00 0.00 79 1003.7
20260506032615 13 0.0 0.0 0.00 0.00 0.00 80 1003.7
20260506031614 13 0.0 0.0 0.00 0.00 0.00 80 1004.7
20260506030614 13 0.0 0.0 0.00 0.00 0.00 80 1004.7
20260506025614 13 0.0 0.0 0.00 0.00 0.00 80 1004.7
20260506024423 13 0.0 0.0 0.00 0.00 0.00 79 1004.7
20260506023423 13 0.0 0.0 0.00 0.00 0.00 79 1004.7
20260506022232 13 0.0 0.0 0.00 0.00 0.00 79 1004.7
20260506021232 13 0.0 0.0 0.00 0.00 0.00 79 1004.7
20260506020232 13 0.0 0.0 0.00 0.00 0.00 79 1004.7
20260506015232 13 0.0 0.0 0.00 0.00 0.00 79 1004.7
20260506014232 13 0.0 0.0 0.00 0.00 0.00 79 1004.7
20260506013041 13 0.0 0.0 0.00 0.00 0.00 79 1005.8
20260506012040 13 0.0 0.0 0.00 0.00 0.00 79 1005.8
20260506011041 13 0.0 0.0 0.00 0.00 0.00 79 1005.8
20260506010041 13 0.0 0.0 0.00 0.00 0.00 79 1005.8
20260506005041 13 0.0 0.0 0.00 0.00 0.00 79 1005.8
20260506004041 13 0.0 0.0 0.00 0.00 0.00 79 1005.8
20260506002849 13 0.0 0.0 0.00 0.00 0.00 79 1005.8
20260506001850 13 0.0 0.0 0.00 0.00 0.00 79 1005.8
20260506000850 13 0.0 0.0 0.00 0.00 0.00 79 1006.8
20260505235850 13 0.0 0.0 0.00 0.00 0.00 79 1006.8
20260505234849 13 0.0 0.0 0.00 0.00 0.00 79 1006.8
20260505233658 13 0.0 0.0 0.00 0.00 0.00 79 1006.8
20260505232658 13 0.0 0.0 0.00 0.00 0.00 79 1006.8
20260505231658 13 0.0 0.0 0.00 0.00 0.00 79 1006.8
20260505230658 13 0.0 0.0 0.00 0.00 0.00 79 1006.8
20260505225658 13 0.0 0.0 0.00 0.00 0.00 79 1006.8
20260505224658 13 0.0 0.0 0.00 0.00 0.00 78 1006.8
20260505223658 13 0.0 0.0 0.00 0.00 0.00 78 1006.8
20260505222507 13 0.0 0.0 0.00 0.00 0.00 78 1007.9
20260505221507 13 0.0 0.0 0.00 0.00 0.00 77 1007.9
20260505220507 13 0.0 0.0 0.00 0.00 0.00 77 1007.9
20260505215507 13 0.0 0.0 0.00 0.00 0.00 77 1007.9
20260505214507 13 0.0 0.0 0.00 0.00 0.00 77 1007.9
20260505213315 13 0.0 0.0 0.00 0.00 0.00 76 1007.9
20260505212315 13 0.0 0.0 0.00 0.00 0.00 76 1007.9
20260505211315 13 0.0 0.0 0.00 0.00 0.00 76 1007.9
20260505210124 13 0.0 0.0 0.00 0.00 0.00 76 1007.9